Miscellaneous Local Product
Issued by NWS Hastings, NE

Home | Current Version | Previous Version | Text Only | Print | Product List | Glossary Off
Versions: 1 2 3 4 5 6 7 8 9 10 11 12 13 14 15 16 17 18 19 20 21 22 23 24 25 26 27 28 29 30 31 32 33 34 35 36 37 38 39 40 41 42 43 44 45 46 47 48 49 50

000
AXUS43 KGID 311002
MISGRI

GID CWA HOURLY WEATHER ROUNDUP
NATIONAL WEATHER SERVICE HASTINGS NE
400 AM CST SAT JAN 31 2015

NOTE: "FAIR" INDICATES FEW OR NO CLOUDS BELOW 12,000 FEET WITH NO
SIGNIFICANT WEATHER AND/OR OBSTRUCTIONS TO VISIBILITY.

...SOUTH CENTRAL NEBRASKA...

CITY           SKY/WX    TMP DP  RH WIND       PRES   REMARKS
GRAND ISLAND   CLOUDY    35  32  88 S12       30.13F WCI  27
HASTINGS       FLURRIES  33  31  92 S8        30.11F WCI  26
KEARNEY        CLOUDY    34  30  86 S12       30.10S WCI  25
ORD            CLOUDY    35  31  85 S3        30.08F
YORK           CLOUDY    34  32  93 SW9       30.15F WCI  26
AURORA         CLOUDY    34  33  94 S13       30.13F WCI  25
LEXINGTON      RAIN      34  32  92 S9        30.07F WCI  27
HOLDREGE       DRIZZLE   33  32  96 S10       30.09F WCI  25
HEBRON         LGT RAIN  35  32  90 S10       30.18F WCI  27

...NEBRASKA PANHANDLE...

CITY           SKY/WX    TMP DP  RH WIND       PRES   REMARKS
CHADRON        CLOUDY    27  24  89 CALM      30.02F
ALLIANCE       MOCLDY    29  26  89 N5        29.98F WCI  24
SCOTTSBLUFF    CLOUDY    33  26  75 NW3       29.99F
SIDNEY         CLOUDY    32  28  85 N8        29.97F WCI  25

...WESTERN AND NORTH CENTRAL NEBRASKA...

CITY           SKY/WX    TMP DP  RH WIND       PRES   REMARKS
VALENTINE      CLOUDY    28  25  88 NE3       30.04F
AINSWORTH      CLOUDY    29  28  93 CALM      30.05S
ONEILL         CLOUDY    34  32  92 S3        30.08F
BROKEN BOW     CLOUDY    36  32  85 S8        30.06F WCI  30
IMPERIAL       CLOUDY    34  32  92 SE7       29.99F WCI  28
NORTH PLATTE   CLOUDY    34  32  92 S6        30.03F WCI  29
MCCOOK         CLOUDY    34  32  92 SE5       30.04F WCI  30

...EASTERN NEBRASKA...

CITY           SKY/WX    TMP DP  RH WIND       PRES   REMARKS
NORFOLK        CLOUDY    35  32  88 S8        30.11F WCI  29
SO SIOUX CITY  MOCLDY    28  25  88 E7        30.13F WCI  21
TEKAMAH        CLOUDY    32  28  85 S10       30.16F WCI  24
COLUMBUS       CLOUDY    37  30  75 SW10      30.15F WCI  30
ALBION         CLOUDY    35  31  85 S5        30.11F WCI  31
OMAHA EPPLEY   CLOUDY    33  27  78 SE9       30.19F WCI  25
OFFUTT AFB     CLOUDY    32  26  80 E5        30.19F WCI  27
MILLARD        CLOUDY    34  29  82 SE5       30.19F WCI  30
LINCOLN        CLOUDY    37  33  85 SW10      30.19F WCI  30
NEBRASKA CITY  CLOUDY    37  33  83 SW14      30.21F WCI  29
BEATRICE       LGT RAIN  35  34  97 S8        30.20F WCI  28
FALLS CITY     LGT RAIN  37  34  89 S6        30.24F WCI  32

...NORTHERN KANSAS...

CITY           SKY/WX    TMP DP  RH WIND       PRES   REMARKS
GOODLAND       CLOUDY    34  33  96 S12       29.97F WCI  25
HILL CITY      CLOUDY    34  32  92 S7        30.09F WCI  28
NORTON         LGT SNOW  34  30  86 SE9       30.06  WCI  26
PHILLIPSBURG   LGT SNOW  36  36 100 SE7       30.12F WCI  30
SMITH CENTER   LGT SNOW  30  30 100 SE13      30.15F WCI  20
BELOIT         CLOUDY    34  32  93 S9        30.18F WCI  26
HAYS           CLOUDY    32  25  74 SE12      30.13F WCI  23
RUSSELL        LGT SNOW  33  32  96 SE9       30.14F FOG     WCI  25
CONCORDIA      LGT SNOW  33  33 100 S8        30.19F FOG     WCI  26
SALINA         CLOUDY    36  34  92 SE6       30.22F WCI  31
TOPEKA         LGT RAIN  35  34  96 SE3       30.28F FOG



USA.gov is the U.S. government's official web portal to all federal, state and local government web resources and services.